Location: Oberstdorf
(47.4188°N, 10.2969°E)
Time: 21:30:17
(UTC+01:00)

ISS - Pass Details

Date: 15 November 2017
Orbit: 402 x 407 km, 51.6° (Epoch: 24 November)

Event Time Altitude Azimuth Distance (km) Brightness Sun altitude
Exits shadow 06:27:59 13° 268° (W) 1,308 -1.8 -9.5°
Maximum altitude 06:30:07 22° 220° (SW) 934 -2.2 -9.2°
Drops below altitude 10° 06:32:42 10° 167° (SSE) 1,448 -0.6 -8.8°
Sets 06:35:03 0° 152° (SSE) 2,303 0.8 -8.4°
